TimeCST,TemperatureF,Dew PointF,Humidity,Sea Level PressureIn,VisibilityMPH,Wind Direction,Wind SpeedMPH,Gust SpeedMPH,PrecipitationIn,Events,Conditions,WindDirDegrees,DateUTC
12:15 AM,-4.0,-9.4,78,30.15,10.0,WNW,10.4,-,N/A,,Scattered Clouds,290,2013-01-21 06:15:00
12:35 AM,-4.0,-11.2,71,30.15,10.0,WNW,11.5,-,N/A,,Scattered Clouds,300,2013-01-21 06:35:00
12:55 AM,-4.0,-13.0,65,30.14,10.0,WNW,8.1,-,N/A,,Scattered Clouds,300,2013-01-21 06:55:00
1:15 AM,-5.8,-13.0,71,30.14,10.0,WNW,13.8,20.7,N/A,,Overcast,300,2013-01-21 07:15:00
1:35 AM,-5.8,-14.8,65,30.15,10.0,NW,13.8,-,N/A,,Mostly Cloudy,310,2013-01-21 07:35:00
1:55 AM,-5.8,-14.8,65,30.16,10.0,WNW,12.7,16.1,N/A,,Scattered Clouds,300,2013-01-21 07:55:00
2:15 AM,-5.8,-14.8,65,30.16,7.0,NW,9.2,19.6,N/A,,Overcast,310,2013-01-21 08:15:00
2:35 AM,-7.6,-14.8,71,30.16,10.0,WNW,11.5,20.7,N/A,,Mostly Cloudy,300,2013-01-21 08:35:00
2:55 AM,-7.6,-14.8,71,30.16,10.0,NW,12.7,-,N/A,,Clear,310,2013-01-21 08:55:00
3:15 AM,-7.6,-14.8,71,30.16,10.0,WNW,11.5,-,N/A,,Scattered Clouds,300,2013-01-21 09:15:00
3:35 AM,-7.6,-16.6,65,30.16,7.0,NW,10.4,-,N/A,,Scattered Clouds,310,2013-01-21 09:35:00
3:55 AM,-9.4,-14.8,77,30.16,7.0,WNW,9.2,-,N/A,,Mostly Cloudy,300,2013-01-21 09:55:00
4:15 AM,-9.4,-16.6,71,30.16,10.0,WNW,10.4,-,N/A,,Scattered Clouds,300,2013-01-21 10:15:00
4:55 AM,-9.4,-18.4,65,30.16,10.0,WNW,9.2,16.1,N/A,,Scattered Clouds,300,2013-01-21 10:55:00
5:15 AM,-9.4,-18.4,65,30.16,10.0,WNW,13.8,19.6,N/A,,Scattered Clouds,300,2013-01-21 11:15:00
5:35 AM,-9.4,-18.4,65,30.16,10.0,NW,10.4,-,N/A,,Clear,310,2013-01-21 11:35:00
5:55 AM,-11.2,-20.2,64,30.16,10.0,WNW,10.4,-,N/A,,Clear,300,2013-01-21 11:55:00
6:15 AM,-11.2,-22.0,59,30.17,10.0,WNW,8.1,-,N/A,,Clear,300,2013-01-21 12:15:00
6:35 AM,-13.0,-22.0,64,30.17,10.0,WNW,15.0,-,N/A,,Clear,290,2013-01-21 12:35:00
6:55 AM,-13.0,-23.8,59,30.17,10.0,WNW,15.0,18.4,N/A,,Clear,300,2013-01-21 12:55:00
7:15 AM,-13.0,-23.8,59,30.17,10.0,WNW,13.8,20.7,N/A,,Clear,300,2013-01-21 13:15:00
7:35 AM,-13.0,-23.8,59,30.18,10.0,WNW,16.1,20.7,N/A,,Clear,290,2013-01-21 13:35:00
7:55 AM,-13.0,-23.8,59,30.19,10.0,WNW,11.5,-,N/A,,Clear,300,2013-01-21 13:55:00
8:15 AM,-13.0,-23.8,59,30.20,10.0,WNW,13.8,19.6,N/A,,Clear,300,2013-01-21 14:15:00
8:35 AM,-13.0,-22.0,64,30.20,10.0,NW,12.7,-,N/A,,Scattered Clouds,310,2013-01-21 14:35:00
8:55 AM,-13.0,-22.0,64,30.20,4.0,WNW,11.5,16.1,N/A,,Haze,290,2013-01-21 14:55:00
9:15 AM,-13.0,-22.0,64,30.22,2.5,WNW,15.0,24.2,N/A,,Haze,290,2013-01-21 15:15:00
9:35 AM,-13.0,-22.0,64,30.22,4.0,WNW,12.7,17.3,N/A,,Haze,290,2013-01-21 15:35:00
9:55 AM,-13.0,-22.0,64,30.22,4.0,WNW,11.5,-,N/A,,Haze,290,2013-01-21 15:55:00
10:15 AM,-13.0,-22.0,64,30.22,5.0,NW,15.0,19.6,N/A,,Haze,310,2013-01-21 16:15:00
10:35 AM,-11.2,-22.0,59,30.23,7.0,WNW,16.1,23.0,N/A,,Overcast,300,2013-01-21 16:35:00
10:55 AM,-11.2,-22.0,59,30.22,5.0,WNW,16.1,19.6,N/A,,Haze,290,2013-01-21 16:55:00
11:15 AM,-11.2,-22.0,59,30.22,7.0,WNW,15.0,21.9,N/A,,Overcast,290,2013-01-21 17:15:00
11:35 AM,-9.4,-20.2,59,30.21,5.0,WNW,11.5,-,N/A,,Haze,300,2013-01-21 17:35:00
11:55 AM,-9.4,-22.0,54,30.20,7.0,WNW,11.5,-,N/A,,Overcast,300,2013-01-21 17:55:00
12:15 PM,-9.4,-20.2,59,30.19,7.0,WNW,12.7,19.6,N/A,,Overcast,290,2013-01-21 18:15:00
12:35 PM,-9.4,-18.4,65,30.18,5.0,West,11.5,18.4,N/A,,Haze,280,2013-01-21 18:35:00
12:55 PM,-7.6,-18.4,59,30.18,7.0,West,15.0,19.6,N/A,,Overcast,280,2013-01-21 18:55:00
1:15 PM,-7.6,-18.4,59,30.17,10.0,WNW,15.0,18.4,N/A,,Overcast,290,2013-01-21 19:15:00
1:35 PM,-7.6,-22.0,50,30.16,10.0,WNW,10.4,16.1,N/A,,Overcast,300,2013-01-21 19:35:00
1:55 PM,-7.6,-20.2,54,30.16,10.0,WNW,13.8,17.3,N/A,,Mostly Cloudy,290,2013-01-21 19:55:00
2:15 PM,-7.6,-18.4,59,30.16,10.0,West,13.8,17.3,N/A,,Mostly Cloudy,270,2013-01-21 20:15:00
2:35 PM,-7.6,-18.4,59,30.16,10.0,West,10.4,-,N/A,,Overcast,260,2013-01-21 20:35:00
2:55 PM,-7.6,-18.4,59,30.17,10.0,West,13.8,-,N/A,,Overcast,280,2013-01-21 20:55:00
3:15 PM,-7.6,-18.4,59,30.17,10.0,WNW,12.7,-,N/A,,Mostly Cloudy,290,2013-01-21 21:15:00
3:35 PM,-7.6,-18.4,59,30.17,10.0,West,12.7,-,N/A,,Mostly Cloudy,260,2013-01-21 21:35:00
3:55 PM,-7.6,-18.4,59,30.16,10.0,WNW,11.5,17.3,N/A,,Mostly Cloudy,290,2013-01-21 21:55:00
4:15 PM,-7.6,-18.4,59,30.17,10.0,WNW,13.8,-,N/A,,Clear,290,2013-01-21 22:15:00
4:35 PM,-7.6,-18.4,59,30.17,10.0,West,9.2,-,N/A,,Clear,270,2013-01-21 22:35:00
5:15 PM,-9.4,-18.4,65,30.17,10.0,West,11.5,18.4,N/A,,Clear,270,2013-01-21 23:15:00
5:35 PM,-9.4,-18.4,65,30.17,10.0,West,6.9,-,N/A,,Clear,270,2013-01-21 23:35:00
5:55 PM,-9.4,-18.4,65,30.18,10.0,West,9.2,-,N/A,,Clear,270,2013-01-21 23:55:00
6:15 PM,-9.4,-18.4,65,30.18,10.0,West,8.1,-,N/A,,Clear,270,2013-01-22 00:15:00
6:55 PM,-9.4,-18.4,65,30.18,10.0,West,10.4,-,N/A,,Clear,270,2013-01-22 00:55:00
7:15 PM,-9.4,-18.4,65,30.19,10.0,West,10.4,-,N/A,,Clear,270,2013-01-22 01:15:00
7:35 PM,-9.4,-18.4,65,30.19,10.0,West,10.4,-,N/A,,Clear,270,2013-01-22 01:35:00
7:55 PM,-9.4,-18.4,65,30.19,10.0,West,9.2,-,N/A,,Clear,270,2013-01-22 01:55:00
8:15 PM,-9.4,-18.4,65,30.19,10.0,West,9.2,-,N/A,,Clear,270,2013-01-22 02:15:00
8:35 PM,-9.4,-18.4,65,30.19,10.0,West,8.1,-,N/A,,Clear,270,2013-01-22 02:35:00
8:55 PM,-9.4,-18.4,65,30.20,10.0,West,5.8,-,N/A,,Clear,270,2013-01-22 02:55:00
9:15 PM,-11.2,-18.4,70,30.20,10.0,West,5.8,-,N/A,,Clear,260,2013-01-22 03:15:00
9:35 PM,-11.2,-18.4,70,30.20,10.0,West,6.9,-,N/A,,Clear,270,2013-01-22 03:35:00
9:55 PM,-11.2,-18.4,70,30.20,10.0,West,5.8,-,N/A,,Clear,260,2013-01-22 03:55:00
10:15 PM,-11.2,-18.4,70,30.20,10.0,West,4.6,-,N/A,,Clear,260,2013-01-22 04:15:00
10:35 PM,-11.2,-18.4,70,30.20,10.0,West,4.6,-,N/A,,Clear,260,2013-01-22 04:35:00
10:55 PM,-13.0,-18.4,77,30.20,10.0,West,4.6,-,N/A,,Clear,260,2013-01-22 04:55:00
11:15 PM,-13.0,-18.4,77,30.20,10.0,WSW,3.5,-,N/A,,Clear,250,2013-01-22 05:15:00
11:35 PM,-13.0,-18.4,77,30.20,10.0,West,4.6,-,N/A,,Clear,260,2013-01-22 05:35:00
11:55 PM,-13.0,-18.4,77,30.20,10.0,WNW,3.5,-,N/A,,Clear,290,2013-01-22 05:55:00